Regional Weather Roundup
Issued by NWS

Home | Current Version | Previous Version | Graphics & Text | Print | Product List | Glossary On
Versions: 1 2 3 4 5 6 7 8 9 10 11 12 13 14 15 16 17 18 19 20 21 22 23 24 25 26 27 28 29 30 31 32 33 34 35 36 37 38 39 40 41 42 43 44 45 46 47 48 49 50
000
ASUS43 KIND 221159
RWRIN

WEATHER ROUNDUP FOR INDIANA
NATIONAL WEATHER SERVICE INDIANAPOLIS IN
800 AM EDT TUE MAY 22 2018

NOTE: "FAIR" INDICATES FEW OR NO CLOUDS BELOW 12,000 FEET WITH NO
SIGNIFICANT WEATHER AND/OR OBSTRUCTIONS TO VISIBILITY.

* - STATION DOES NOT REPORT WEATHER SUCH AS PRECIPITATION OR FOG.

+ - STATION NOT QUALITY CONTROLLED BY THE NATIONAL WEATHER SERVICE.
    USE DATA WITH CAUTION...ESPECIALLY DEWPOINT AND RELATIVE
    HUMIDITY OBSERVATIONS.

INZ001>003-010>013-019-020-221300-
NORTHWEST INDIANA

CITY           SKY/WX    TMP DP  RH WIND       PRES   REMARKS
GARY /AIRPORT/ FOG       52  52 100 NE5       30.03R VSB 3/4
MONTICELLO +   PTSUNNY   66  64  95 SW3       30.00R FOG
6HR MIN TEMP:  63; 6HR MAX TEMP:  66;


$$

LMZ046-743>745-221300-
SOUTHERN LAKE MICHIGAN

STATION/POSITION TIME  TEMP    WIND        PRES    WAVE
                       AIR SEA DIR/SP/G            HT
                 (UTC) (F)     (DEG/KT/KT) (MB)    (FT)
BURNS HARBOR     1140   49        CALM     1016.9R
5NW MICH CITY    1150   47 53  320/  4/  8   N/A     1

$$

INZ004-005-014>016-021>024-221300-
NORTH CENTRAL INDIANA

CITY           SKY/WX    TMP DP  RH WIND       PRES   REMARKS
ELKHART        CLOUDY    61  59  94 CALM      29.99R FOG
GOSHEN         CLOUDY    61  60  97 N3        29.99R FOG
6HR MIN TEMP:  58; 6HR MAX TEMP:  61; 6HR PCP: TRACE;

SOUTH BEND     FOG       60  60 100 CALM      30.00R VSB 1/4
6HR MIN TEMP:  58; 6HR MAX TEMP:  61;


$$

INZ006>009-017-018-025>027-221300-
NORTHEAST INDIANA

CITY           SKY/WX    TMP DP  RH WIND       PRES   REMARKS
ANGOLA *+      FOG       59  59 100 CALM      29.99R VSB 1
FORT WAYNE     FOG       65  65 100 SW6       30.01R VSB 1
6HR MIN TEMP:  56; 6HR MAX TEMP:  65;


$$

INZ028-029-035-036-043>045-051>053-221300-
WEST CENTRAL INDIANA

CITY           SKY/WX    TMP DP  RH WIND       PRES   REMARKS
CRAWFORDSVL +  FOG       64  64 100 S3        30.03R VSB 1/4
6HR MIN TEMP:  63; 6HR MAX TEMP:  65;

GREENCASTLE +  FOG       64  64 100 CALM      30.04R VSB 3/4
LAFAYETTE      PTSUNNY  N/A N/A N/A CALM      30.00R FOG
                                      6HR PCP: TRACE;

TERRE HAUTE    FOG       67  67 100 SE3       30.02R VSB 1
6HR MIN TEMP:  63; 6HR MAX TEMP:  69;


$$

INZ030>032-037>040-046>048-054>057-064-065-221300-
CENTRAL INDIANA

CITY           SKY/WX    TMP DP  RH WIND       PRES   REMARKS
ANDERSON       FAIR      67  66  95 SW3       30.04R FOG
COLUMBUS       PTSUNNY   66  64  94 CALM      30.05R FOG
INDIANAPOLIS   FOG       66  66 100 SW3       30.03R VSB<1/4
6HR MIN TEMP:  64; 6HR MAX TEMP:  67;

-EAGLE CREEK   CLOUDY    67  65  93 SW5       30.02R FOG
6HR MIN TEMP:  65; 6HR MAX TEMP:  68;

KOKOMO +       FAIR      67  66  97 S6        30.02R FOG
6HR MIN TEMP:  65; 6HR MAX TEMP:  67;

MT COMFORT *+  CLOUDY    66  66 100 S5        30.04R
SHELBYVILLE    CLOUDY    68  65  90 S8        30.03R FOG
6HR MIN TEMP:  67; 6HR MAX TEMP:  69;


$$

INZ033-034-041-042-049-050-058-059-221300-
EAST CENTRAL INDIANA

CITY           SKY/WX    TMP DP  RH WIND       PRES   REMARKS
MUNCIE         FAIR      70  66  87 SW7       30.02R FOG
6HR MIN TEMP:  67; 6HR MAX TEMP:  70;

RICHMOND +     CLOUDY    64  64 100 SW6       30.06R FOG

$$

INZ060-061-067>069-081>083-085>088-221300-
SOUTHWEST INDIANA

CITY           SKY/WX    TMP DP  RH WIND       PRES   REMARKS
EVANSVILLE     PTSUNNY   70  70 100 CALM      30.04R FOG
6HR MIN TEMP:  66; 6HR MAX TEMP:  70;

HUNTINGBURG +  PTSUNNY   69  68  96 S3        30.05R
6HR MIN TEMP:  66; 6HR MAX TEMP:  69;


$$

INZ062-063-066-070>080-084-089>092-221300-
SOUTH CENTRAL AND SOUTHEAST INDIANA

CITY           SKY/WX    TMP DP  RH WIND       PRES   REMARKS
BLOOMINGTON    FOG       66  66 100 CALM      30.04R VSB 1
6HR MIN TEMP:  63; 6HR MAX TEMP:  66;

SEYMOUR +      FAIR      68  68 100 CALM      30.04R FOG

$$




USA.gov is the U.S. government's official web portal to all federal, state and local government web resources and services.